H1 CPF 2 NER 2024 1 27 9 027 01 glonass116 H2 0907001 9116 36111 2024 1 27 0 0 0 2024 1 30 23 45 0 900 1 1 0 0 0 1 H9 10 0 60336 0.00000 0 23097519.585 -6021539.308 8986599.212 10 0 60336 900.00000 0 21892534.354 -5556099.426 11848738.406 10 0 60336 1800.00000 0 20434021.151 -4831407.350 14480651.840 10 0 60336 2700.00000 0 18779432.628 -3828908.337 16831237.384 10 0 60336 3600.00000 0 16990833.207 -2542107.948 18854874.112 10 0 60336 4500.00000 0 15132334.569 -977104.995 20512305.162 10 0 60336 5400.00000 0 13267466.388 847407.241 21771395.465 10 0 60336 6300.00000 0 11456592.299 2900672.359 22607750.232 10 0 60336 7200.00000 0 9754478.783 5140913.301 23005182.825 10 0 60336 8100.00000 0 8208117.925 7516843.224 22956023.672 10 0 60336 9000.00000 0 6854894.081 9969582.683 22461264.809 10 0 60336 9900.00000 0 5721169.961 12434904.124 21530537.705 10 0 60336 10800.00000 0 4821350.026 14845711.208 20181925.041 10 0 60336 11700.00000 0 4157459.153 17134650.717 18441610.044 10 0 60336 12600.00000 0 3719253.070 19236749.158 16343370.027 10 0 60336 13500.00000 0 3484854.907 21091965.060 13927923.519 10 0 60336 14400.00000 0 3421890.256 22647551.263 11242143.183 10 0 60336 15300.00000 0 3489072.315 23860129.143 8338149.314 10 0 60336 16200.00000 0 3638169.788 24697388.518 5272301.070 10 0 60336 17100.00000 0 3816274.085 25139342.422 2104104.666 10 0 60336 18000.00000 0 3968269.694 25179084.342 -1104940.366 10 0 60336 18900.00000 0 4039402.903 24823016.282 -4292534.495 10 0 60336 19800.00000 0 3977839.836 24090538.132 -7396787.776 10 0 60336 20700.00000 0 3737105.055 23013211.377 -10357421.953 10 0 60336 21600.00000 0 3278297.008 21633432.282 -13116941.518 10 0 60336 22500.00000 0 2571985.896 20002670.194 -15621750.747 10 0 60336 23400.00000 0 1599712.952 18179344.873 -17823194.869 10 0 60336 24300.00000 0 355026.841 16226431.758 -19678505.128 10 0 60336 25200.00000 0 -1155987.630 14208895.372 -21151629.465 10 0 60336 26100.00000 0 -2914712.021 12191058.092 -22213932.860 10 0 60336 27000.00000 0 -4890529.227 10234014.067 -22844753.949 10 0 60336 27900.00000 0 -7041869.947 8393195.926 -23031807.352 10 0 60336 28800.00000 0 -9317728.231 6716195.505 -22771423.992 10 0 60336 29700.00000 0 -11659584.129 5240928.999 -22068624.816 10 0 60336 30600.00000 0 -14003654.361 3994222.569 -20937026.322 10 0 60336 31500.00000 0 -16283378.112 2990876.812 -19398579.460 10 0 60336 32400.00000 0 -18432035.023 2233248.495 -17483146.596 10 0 60336 33300.00000 0 -20385386.697 1711366.290 -15227924.246 10 0 60336 34200.00000 0 -22084231.714 1403574.831 -12676722.359 10 0 60336 35100.00000 0 -23476767.484 1277679.220 -9879113.768 10 0 60336 36000.00000 0 -24520660.099 1292540.895 -6889470.069 10 0 60336 36900.00000 0 -25184735.335 1400056.715 -3765902.703 10 0 60336 37800.00000 0 -25450219.776 1547436.718 -569129.978 10 0 60336 38700.00000 0 -25311479.874 1679683.328 2638707.512 10 0 60336 39600.00000 0 -24776227.913 1742166.135 5795259.451 10 0 60336 40500.00000 0 -23865186.387 1683182.306 8839182.123 10 0 60336 41400.00000 0 -22611225.194 1456393.311 11711334.206 10 0 60336 42300.00000 0 -21058008.264 1023034.011 14355928.220 10 0 60336 43200.00000 0 -19258206.945 353799.896 16721614.894 10 0 60336 44100.00000 0 -17271355.480 -569667.951 18762479.288 10 0 60336 45000.00000 0 -15161438.828 -1753763.471 20438929.428 10 0 60336 45900.00000 0 -12994313.933 -3192405.391 21718460.579 10 0 60336 46800.00000 0 -10835072.174 -4867058.264 22576280.931 10 0 60336 47700.00000 0 -8745452.832 -6747284.595 22995787.175 10 0 60336 48600.00000 0 -6781414.852 -8791805.716 22968881.485 10 0 60336 49500.00000 0 -4990967.279 -10950027.889 22496124.324 10 0 60336 50400.00000 0 -3412347.759 -13163970.801 21586720.595 10 0 60336 51300.00000 0 -2072623.789 -15370518.895 20258339.618 10 0 60336 52200.00000 0 -986773.778 -17503902.582 18536772.429 10 0 60336 53100.00000 0 -157284.999 -19498306.696 16455432.859 10 0 60336 54000.00000 0 425716.034 -21290498.148 14054711.678 10 0 60336 54900.00000 0 783807.336 -22822363.747 11381195.858 10 0 60336 55800.00000 0 949117.931 -24043252.603 8486767.614 10 0 60336 56700.00000 0 962726.359 -24912025.478 5427600.288 10 0 60336 57600.00000 0 872679.390 -25398725.447 2263070.196 10 0 60336 58500.00000 0 731715.093 -25485799.826 -945394.545 10 0 60336 59400.00000 0 594786.946 -25168822.043 -4135505.907 10 0 60336 60300.00000 0 516494.140 -24456682.959 -7245325.283 10 0 60336 61200.00000 0 548527.271 -23371243.360 -10214466.526 10 0 60336 62100.00000 0 737237.966 -21946461.994 -12985269.083 10 0 60336 63000.00000 0 1121435.899 -20227035.433 -15503918.256 10 0 60336 63900.00000 0 1730506.931 -18266606.579 -17721490.616 10 0 60336 64800.00000 0 2582932.714 -16125616.593 -19594904.275 10 0 60336 65700.00000 0 3685275.105 -13868889.842 -21087755.667 10 0 60336 66600.00000 0 5031669.233 -11563052.553 -22171026.692 10 0 60336 67500.00000 0 6603847.729 -9273892.553 -22823648.782 10 0 60336 68400.00000 0 8371696.370 -7063769.847 -23032913.124 10 0 60336 69300.00000 0 10294319.163 -4989185.474 -22794719.208 10 0 60336 70200.00000 0 12321569.533 -3098609.412 -22113656.917 10 0 60336 71100.00000 0 14395984.815 -1430657.371 -21002920.426 10 0 60336 72000.00000 0 16455044.175 -12691.827 -19484055.312 10 0 60336 72900.00000 0 18433656.438 1140095.130 -17586543.375 10 0 60336 73800.00000 0 20266774.443 2025079.659 -15347232.780 10 0 60336 74700.00000 0 21892026.874 2652068.977 -12809624.113 10 0 60336 75600.00000 0 23252257.552 3042635.864 -10023025.859 10 0 60336 76500.00000 0 24297865.696 3228953.809 -7041595.460 10 0 60336 77400.00000 0 24988848.749 3252182.900 -3923284.593 10 0 60336 78300.00000 0 25296461.737 3160475.594 -728709.357 10 0 60336 79200.00000 0 25204423.116 3006687.662 2480032.280 10 0 60336 80100.00000 0 24709616.170 2845892.176 5640572.192 10 0 60336 81000.00000 0 23822256.300 2732802.717 8691488.754 10 0 60336 81900.00000 0 22565517.166 2719215.850 11573504.183 10 0 60336 82800.00000 0 20974631.461 2851581.947 14230638.690 10 0 60336 83700.00000 0 19095504.257 3168807.858 16611298.669 10 0 60336 84600.00000 0 16982897.267 3700384.975 18669277.661 10 0 60336 85500.00000 0 14698260.295 4464922.213 20364650.728 10 0 60337 0.00000 0 12307300.831 5469146.197 21664545.180 10 0 60337 900.00000 0 9877391.911 6707411.770 22543773.862 10 0 60337 1800.00000 0 7474929.280 8161742.532 22985317.726 10 0 60337 2700.00000 0 5162743.155 9802402.033 22980651.349 10 0 60337 3600.00000 0 2997674.687 11588971.114 22529903.852 10 0 60337 4500.00000 0 1028415.735 13471887.491 21641853.348 10 0 60337 5400.00000 0 -706299.158 15394383.971 20333755.130 10 0 60337 6300.00000 0 -2179074.612 17294745.113 18631006.939 10 0 60337 7200.00000 0 -3374753.840 19108788.855 16566657.627 10 0 60337 8100.00000 0 -4290799.482 20772470.092 14180768.360 10 0 60337 9000.00000 0 -4937141.211 22224498.011 11519638.272 10 0 60337 9900.00000 0 -5335497.641 23408858.015 8634909.107 10 0 60337 10800.00000 0 -5518202.072 24277132.955 5582565.793 10 0 60337 11700.00000 0 -5526582.316 24790526.403 2421851.979 10 0 60337 12600.00000 0 -5408963.629 24921502.980 -785878.528 10 0 60337 13500.00000 0 -5218379.645 24654976.645 -3978352.177 10 0 60337 14400.00000 0 -5010088.569 23988996.658 -7093584.691 10 0 60337 15300.00000 0 -4839000.137 22934901.964 -10071084.967 10 0 60337 16200.00000 0 -4757122.643 21516937.031 -12853030.244 10 0 60337 17100.00000 0 -4811138.492 19771344.731 -15385389.506 10 0 60337 18000.00000 0 -5040211.318 17744973.811 -17618973.114 10 0 60337 18900.00000 0 -5474117.885 15493458.761 -19510388.276 10 0 60337 19800.00000 0 -6131784.331 13079047.691 -21022881.884 10 0 60337 20700.00000 0 -7020289.237 10568168.500 -22127054.467 10 0 60337 21600.00000 0 -8134376.405 8028834.349 -22801431.666 10 0 60337 22500.00000 0 -9456498.865 5527996.026 -23032882.316 10 0 60337 23400.00000 0 -10957393.319 3128950.915 -22816875.165 10 0 60337 24300.00000 0 -12597162.068 888915.792 -22157569.288 10 0 60337 25200.00000 0 -14326818.163 -1143136.236 -21067736.313 10 0 60337 26100.00000 0 -16090230.034 -2928285.244 -19568515.703 10 0 60337 27000.00000 0 -17826384.996 -4439045.901 -17689007.471 10 0 60337 27900.00000 0 -19471877.479 -5660263.977 -15465709.745 10 0 60337 28800.00000 0 -20963518.040 -6589491.377 -12941811.671 10 0 60337 29700.00000 0 -22240953.946 -7236825.007 -10166355.002 10 0 60337 30600.00000 0 -23249191.234 -7624217.272 -7193280.403 10 0 60337 31500.00000 0 -23940912.027 -7784288.272 -4080376.997 10 0 60337 32400.00000 0 -24278489.269 -7758690.865 -888155.756 10 0 60337 33300.00000 0 -24235613.680 -7596098.699 2321330.985 10 0 60337 34200.00000 0 -23798463.954 -7349903.354 5485700.352 10 0 60337 35100.00000 0 -22966370.556 -7075719.020 8543455.891 10 0 60337 36000.00000 0 -21751944.869 -6828801.292 11435186.412 10 0 60337 36900.00000 0 -20180668.052 -6661490.147 14104722.772 10 0 60337 37800.00000 0 -18289956.759 -6620786.018 16500229.805 10 0 60337 38700.00000 0 -16127744.867 -6746161.977 18575212.032 10 0 60337 39600.00000 0 -13750640.593 -7067704.882 20289413.707 10 0 60337 40500.00000 0 -11221735.962 -7604664.216 21609596.111 10 0 60337 41400.00000 0 -8608159.877 -8364470.012 22510177.557 10 0 60337 42300.00000 0 -5978476.445 -9342261.448 22973724.333 10 0 60337 43200.00000 0 -3400036.332 -10520946.195 22991283.776 10 0 60337 44100.00000 0 -936390.489 -11871788.433 22562553.606 10 0 60337 45000.00000 0 1355127.139 -13355501.345 21695884.722 10 0 60337 45900.00000 0 3425548.616 -14923798.896 20408117.633 10 0 60337 46800.00000 0 5236064.633 -16521342.606 18724255.744 10 0 60337 47700.00000 0 6759387.445 -18088002.446 16676981.608 10 0 60337 48600.00000 0 7980628.691 -19561337.838 14306025.212 10 0 60337 49500.00000 0 8897656.785 -20879195.413 11657396.015 10 0 60337 50400.00000 0 9520920.138 -21982315.005 8782493.214 10 0 60337 51300.00000 0 9872744.778 -22816834.840 5737111.025 10 0 60337 52200.00000 0 9986136.850 -23336590.807 2580357.954 10 0 60337 53100.00000 0 9903141.230 -23505113.030 -626489.114 10 0 60337 54000.00000 0 9672826.179 -23297235.543 -3821173.804 10 0 60337 54900.00000 0 9348979.690 -22700250.873 -6941668.911 10 0 60337 55800.00000 0 8987615.358 -21714560.389 -9927381.131 10 0 60337 56700.00000 0 8644393.669 -20353792.402 -12720328.220 10 0 60337 57600.00000 0 8372068.119 -18644382.285 -15266265.512 10 0 60337 58500.00000 0 8218064.508 -16624631.506 -17515739.711 10 0 60337 59400.00000 0 8222296.092 -14343284.190 -19425049.496 10 0 60337 60300.00000 0 8415307.249 -11857680.044 -20957094.348 10 0 60337 61200.00000 0 8816824.482 -9231560.052 -22082095.245 10 0 60337 62100.00000 0 9434776.353 -6532615.785 -22778173.483 10 0 60337 63000.00000 0 10264824.333 -3829883.683 -23031776.597 10 0 60337 63900.00000 0 11290425.015 -1191092.104 -22837943.245 10 0 60337 64800.00000 0 12483421.933 1319929.232 -22200401.936 10 0 60337 65700.00000 0 13805143.012 3645670.391 -21131501.618 10 0 60337 66600.00000 0 15207958.404 5737092.961 -19651975.143 10 0 60337 67500.00000 0 16637234.086 7555423.565 -17790539.875 10 0 60337 68400.00000 0 18033599.826 9073515.230 -15583342.685 10 0 60337 69300.00000 0 19335436.668 10276720.594 -13073259.692 10 0 60337 70200.00000 0 20481479.578 11163241.396 -10309063.952 10 0 60337 71100.00000 0 21413425.788 11743940.566 -7344477.022 10 0 60337 72000.00000 0 22078438.768 12041625.867 -4237122.811 10 0 60337 72900.00000 0 22431441.976 12089836.328 -1047404.245 10 0 60337 73800.00000 0 22437105.181 11931183.748 2162675.078 10 0 60337 74700.00000 0 22071439.050 11615320.403 5330720.710 10 0 60337 75600.00000 0 21322930.199 11196619.910 8395164.539 10 0 60337 76500.00000 0 20193168.358 10731670.313 11296465.017 10 0 60337 77400.00000 0 18696938.760 10276686.279 13978266.538 10 0 60337 78300.00000 0 16861775.511 9884950.556 16388495.047 10 0 60337 79200.00000 0 14726994.346 9604393.344 18480368.473 10 0 60337 80100.00000 0 12342245.047 9475412.167 20213302.432 10 0 60337 81000.00000 0 9765643.775 9529024.393 21553693.963 10 0 60337 81900.00000 0 7061562.958 9785430.305 22475568.653 10 0 60337 82800.00000 0 4298170.413 10253047.214 22961079.225 10 0 60337 83700.00000 0 1544819.541 10928055.183 23000846.623 10 0 60337 84600.00000 0 -1130601.698 11794473.495 22594137.585 10 0 60337 85500.00000 0 -3664253.765 12824764.771 21748875.749 10 0 60338 0.00000 0 -5998754.087 13980941.544 20481486.451 10 0 60338 900.00000 0 -8085313.526 15216129.881 18816577.522 10 0 60338 1800.00000 0 -9885510.076 16476523.362 16786463.879 10 0 60338 2700.00000 0 -11372631.446 17703647.976 14430542.500 10 0 60338 3600.00000 0 -12532528.629 18836841.864 11794531.043 10 0 60338 4500.00000 0 -13363947.308 19815846.697 8929583.782 10 0 60338 5400.00000 0 -13878324.132 20583401.981 5891301.685 10 0 60338 6300.00000 0 -14099057.406 21087733.211 2738655.451 10 0 60338 7200.00000 0 -14060283.740 21284829.057 -467157.709 10 0 60338 8100.00000 0 -13805212.904 21140411.378 -3663901.398 10 0 60338 9000.00000 0 -13384091.738 20631514.580 -6789508.321 10 0 60338 9900.00000 0 -12851883.573 19747607.164 -9783285.791 10 0 60338 10800.00000 0 -12265761.612 18491207.455 -12587094.833 10 0 60338 11700.00000 0 -11682522.507 16877966.702 -15146479.759 10 0 60338 12600.00000 0 -11156029.708 14936215.118 -17411726.076 10 0 60338 13500.00000 0 -10734794.765 12705988.906 -19338826.183 10 0 60338 14400.00000 0 -10459798.917 10237577.958 -20890334.151 10 0 60338 15300.00000 0 -10362647.044 7589654.017 -22036093.141 10 0 60338 16200.00000 0 -10464132.066 4827056.421 -22753821.551 10 0 60338 17100.00000 0 -10773270.532 2018326.774 -23029546.739 10 0 60338 18000.00000 0 -11286850.389 -766905.640 -22857878.018 10 0 60338 18900.00000 0 -11989510.410 -3460579.837 -22242113.688 10 0 60338 19800.00000 0 -12854348.482 -5998790.864 -21194179.921 10 0 60338 20700.00000 0 -13844033.721 -8324202.386 -19734402.402 10 0 60338 21600.00000 0 -14912376.241 -10388184.534 -17891114.830 10 0 60338 22500.00000 0 -16006288.995 -12152588.707 -15700111.372 10 0 60338 23400.00000 0 -17068059.522 -13591086.037 -13203953.285 10 0 60338 24300.00000 0 -18037836.104 -14690014.411 -10451142.777 10 0 60338 25200.00000 0 -18856223.573 -15448699.457 -7495179.896 10 0 60338 26100.00000 0 -19466879.076 -15879236.936 -4393520.740 10 0 60338 27000.00000 0 -19818997.896 -16005746.696 -1206457.432 10 0 60338 27900.00000 0 -19869583.828 -15863130.642 2004058.039 10 0 60338 28800.00000 0 -19585407.618 -15495388.155 5175622.633 10 0 60338 29700.00000 0 -18944570.113 -14953561.162 8246599.616 10 0 60338 30600.00000 0 -17937603.481 -14293396.625 11157320.156 10 0 60338 31500.00000 0 -16568063.435 -13572826.145 13851245.203 10 0 60338 32400.00000 0 -14852586.937 -12849369.889 16276064.709 10 0 60338 33300.00000 0 -12820412.423 -12177575.008 18384712.695 10 0 60338 34200.00000 0 -10512382.156 -11606596.967 20136278.505 10 0 60338 35100.00000 0 -7979468.014 -11178025.869 21496796.926 10 0 60338 36000.00000 0 -5280881.735 -10924049.238 22439902.376 10 0 60338 36900.00000 0 -2481847.900 -10866028.330 22947335.112 10 0 60338 37800.00000 0 348868.337 -11013547.534 23009290.321 10 0 60338 38700.00000 0 3141576.784 -11363976.465 22624603.962 10 0 60338 39600.00000 0 5828313.232 -11902562.893 21800772.212 10 0 60338 40500.00000 0 8345416.913 -12603052.449 20553804.403 10 0 60338 41400.00000 0 10635928.486 -13428809.107 18907912.350 10 0 60338 42300.00000 0 12651710.018 -14334389.484 16895041.909 10 0 60338 43200.00000 0 14355199.975 -15267505.085 14554255.503 10 0 60338 44100.00000 0 15720731.272 -16171290.283 11930977.110 10 0 60338 45000.00000 0 16735358.470 -16986780.912 9076113.889 10 0 60338 45900.00000 0 17399160.589 -17655499.325 6045071.053 10 0 60338 46800.00000 0 17725007.779 -18122037.122 2896678.730 10 0 60338 47700.00000 0 17737802.495 -18336526.565 -307948.500 10 0 60338 48600.00000 0 17473227.806 -18256896.190 -3506597.294 10 0 60338 49500.00000 0 16976056.171 -17850815.020 -6637163.352 10 0 60338 50400.00000 0 16298090.476 -17097242.696 -9638857.642 10 0 60338 51300.00000 0 15495824.619 -15987519.396 -12453387.369 10 0 60338 52200.00000 0 14627922.654 -14525948.627 -15026088.563 10 0 60338 53100.00000 0 13752623.143 -12729847.323 -17306988.063 10 0 60338 54000.00000 0 12925178.325 -10629059.987 -19251774.261 10 0 60338 54900.00000 0 12195436.200 -8264956.008 -20822657.803 10 0 60338 55800.00000 0 11605667.440 -5688950.958 -21989105.676 10 0 60338 56700.00000 0 11188728.656 -2960612.432 -22728434.656 10 0 60338 57600.00000 0 10966639.333 -145428.290 -23026252.794 10 0 60338 58500.00000 0 10949632.325 2687670.788 -22876740.531 10 0 60338 59400.00000 0 11135717.945 5468932.320 -22282766.029 10 0 60338 60300.00000 0 11510780.102 8130438.558 -21255832.371 10 0 60338 61200.00000 0 12049200.653 10608688.806 -19815857.403 10 0 60338 62100.00000 0 12714985.923 12847000.852 -17990790.140 10 0 60338 63000.00000 0 13463348.190 14797632.225 -15816070.684 10 0 60338 63900.00000 0 14242675.673 16423533.408 -13333943.739 10 0 60338 64800.00000 0 14996808.036 17699660.505 -10592638.641 10 0 60338 65700.00000 0 15667521.325 18613793.114 -7645431.578 10 0 60338 66600.00000 0 16197117.140 19166823.850 -4549608.209 10 0 60338 67500.00000 0 16531006.269 19372508.208 -1365346.987 10 0 60338 68400.00000 0 16620177.004 19256686.162 1845454.728 10 0 60338 69300.00000 0 16423443.116 18856009.257 5020388.390 10 0 60338 70200.00000 0 15909375.749 18216227.832 8097751.710 10 0 60338 71100.00000 0 15057836.830 17390111.609 11017751.526 10 0 60338 72000.00000 0 13861048.524 16435092.287 13723668.138 10 0 60338 72900.00000 0 12324152.926 15410728.391 16162958.096 10 0 60338 73800.00000 0 10465237.705 14376099.840 18288273.863 10 0 60338 74700.00000 0 8314825.979 13387242.439 20058380.613 10 0 60338 75600.00000 0 5914851.132 12494730.395 21438952.707 10 0 60338 76500.00000 0 3317158.765 11741508.445 22403234.914 10 0 60338 77400.00000 0 581597.612 11161064.345 22932556.202 10 0 60338 78300.00000 0 -2226221.793 10776017.996 23016686.799 10 0 60338 79200.00000 0 -5037408.341 10597185.785 22654032.249 10 0 60338 80100.00000 0 -7782409.204 10623158.838 21851661.155 10 0 60338 81000.00000 0 -10393658.592 10840412.310 20625166.374 10 0 60338 81900.00000 0 -12808147.415 11223940.704 18998362.377 10 0 60338 82800.00000 0 -14969808.165 11738392.247 17002824.491 10 0 60338 83700.00000 0 -16831616.866 12339654.544 14677278.610 10 0 60338 84600.00000 0 -18357325.639 12976824.771 12066852.738 10 0 60338 85500.00000 0 -19522754.543 13594481.557 9222204.392 10 0 60339 0.00000 0 -20316589.593 14135162.832 6198540.641 10 0 60339 900.00000 0 -20740654.687 14541945.426 3054547.758 10 0 60339 1800.00000 0 -20809645.803 14761016.765 -148744.804 10 0 60339 2700.00000 0 -20550340.633 14744130.778 -3349149.505 10 0 60339 3600.00000 0 -20000316.316 14450843.138 -6484527.774 10 0 60339 4500.00000 0 -19206230.169 13850431.133 -9493996.911 10 0 60339 5400.00000 0 -18221736.160 12923416.297 -12319112.915 10 0 60339 6300.00000 0 -17105125.161 11662624.618 -14905006.031 10 0 60339 7200.00000 0 -15916788.676 10073738.579 -17201446.752 10 0 60339 8100.00000 0 -14716612.931 8175316.583 -19163821.558 10 0 60339 9000.00000 0 -13561413.100 5998277.638 -20753999.498 10 0 60339 9900.00000 0 -12502515.532 3584871.563 -21941072.907 10 0 60339 10800.00000 0 -11583589.510 987176.426 -22701958.115 10 0 60339 11700.00000 0 -10838819.468 -1734815.378 -23021844.705 10 0 60339 12600.00000 0 -10291494.220 -4515443.818 -22894484.715 10 0 60339 13500.00000 0 -9953072.242 -7285868.277 -22322316.250 10 0 60339 14400.00000 0 -9822762.057 -9976692.498 -21316419.000 10 0 60339 15300.00000 0 -9887635.179 -12520619.043 -19896302.281 10 0 60339 16200.00000 0 -10123266.728 -14855023.568 -18089529.351 10 0 60339 17100.00000 0 -10494876.653 -16924342.363 -15931184.840 10 0 60339 18000.00000 0 -10958923.333 -18682174.121 -13463195.193 10 0 60339 18900.00000 0 -11465082.215 -20093008.699 -10733514.921 10 0 60339 19800.00000 0 -11958525.705 -21133511.083 -7795194.225 10 0 60339 20700.00000 0 -12382407.640 -21793307.250 -4705346.043 10 0 60339 21600.00000 0 -12680446.789 -22075239.567 -1524032.779 10 0 60339 22500.00000 0 -12799499.514 -21995081.644 1686905.323 10 0 60339 23400.00000 0 -12692011.993 -21580725.393 4865056.792 10 0 60339 24300.00000 0 -12318247.496 -20870875.376 7948656.446 10 0 60339 25200.00000 0 -11648193.684 -19913306.283 10877789.538 10 0 60339 26100.00000 0 -10663068.545 -18762757.867 13595558.475 10 0 60339 27000.00000 0 -9356360.586 -17478556.758 16049189.129 10 0 60339 27900.00000 0 -7734358.675 -16122065.932 18191055.007 10 0 60339 28800.00000 0 -5816148.485 -14754069.566 19979599.516 10 0 60339 29700.00000 0 -3633074.940 -13432203.385 21380138.703 10 0 60339 30600.00000 0 -1227692.351 -12208538.283 22365529.465 10 0 60339 31500.00000 0 1347754.609 -11127418.265 22916690.857 10 0 60339 32400.00000 0 4033256.646 -10223642.761 23022969.113 10 0 60339 33300.00000 0 6763292.968 -9521068.683 22682339.911 10 0 60339 34200.00000 0 9469319.014 -9031689.993 21901444.435 10 0 60339 35100.00000 0 12082386.376 -8755232.429 20695458.825 10 0 60339 36000.00000 0 14535787.047 -8679279.605 19087799.590 10 0 60339 36900.00000 0 16767613.040 -8779924.485 17109670.553 10 0 60339 37800.00000 0 18723125.902 -9022918.341 14799459.736 10 0 60339 38700.00000 0 20356838.311 -9365268.503 12201997.452 10 0 60339 39600.00000 0 21634221.780 -9757217.397 9367689.485 10 0 60339 40500.00000 0 22532969.855 -10144519.292 6351541.746 10 0 60339 41400.00000 0 23043764.616 -10470918.561 3212094.947 10 0 60339 42300.00000 0 23170514.871 -10680724.647 10289.835 10 0 60339 43200.00000 0 22930056.538 -10721374.640 -3191715.092 10 0 60339 44100.00000 0 22351328.183 -10545874.797 -6331750.284 10 0 60339 45000.00000 0 21474056.698 -10115017.228 -9348842.628 10 0 60339 45900.00000 0 20347008.694 -9399277.386 -12184400.024 10 0 60339 46800.00000 0 19025881.378 -8380311.366 -14783349.816 10 0 60339 47700.00000 0 17570921.791 -7051988.788 -17095208.776 10 0 60339 48600.00000 0 16044374.596 -5420916.618 -19075063.806 10 0 60339 49500.00000 0 14507865.625 -3506430.526 -20684444.374 10 0 60339 50400.00000 0 13019831.000 -1340052.809 -21892069.842 10 0 60339 51300.00000 0 11633099.472 1035561.879 -22674457.436 10 0 60339 52200.00000 0 10392729.106 3568150.347 -23016379.225 10 0 60339 53100.00000 0 9334188.632 6197771.943 -22911159.418 10 0 60339 54000.00000 0 8481959.282 8859067.679 -22360806.242 10 0 60339 54900.00000 0 7848615.256 11483754.398 -21375975.783 10 0 60339 55800.00000 0 7434420.953 14003251.086 -19975768.220 10 0 60339 56700.00000 0 7227461.381 16351328.723 -18187360.076 10 0 60339 57600.00000 0 7204299.838 18466673.912 -16045479.154 10 0 60339 58500.00000 0 7331134.726 20295259.787 -13591731.917 10 0 60339 59400.00000 0 7565406.312 21792425.590 -10873795.988 10 0 60339 60300.00000 0 7857785.147 22924578.237 -7944493.172 10 0 60339 61200.00000 0 8154457.610 23670444.880 -4860760.991 10 0 60339 62100.00000 0 8399611.306 24021824.272 -1682542.849 10 0 60339 63000.00000 0 8538014.466 23983805.756 1528381.238 10 0 60339 63900.00000 0 8517579.371 23574447.190 4709600.055 10 0 60339 64800.00000 0 8291800.471 22823925.923 7799288.713 10 0 60339 65700.00000 0 7821963.155 21773199.276 10737413.942 10 0 60339 66600.00000 0 7079028.935 20472231.574 13466903.180 10 0 60339 67500.00000 0 6045116.560 18977863.071 15934754.305 10 0 60339 68400.00000 0 4714515.771 17351410.915 18093064.328 10 0 60339 69300.00000 0 3094190.240 15656103.421 19899957.059 10 0 60339 70200.00000 0 1203747.751 13954455.514 21320392.119 10 0 60339 71100.00000 0 -925121.925 12305695.339 22326840.081 10 0 60339 72000.00000 0 -3249718.763 10763349.473 22899811.285 10 0 60339 72900.00000 0 -5717869.900 9373087.211 23028228.758 10 0 60339 73800.00000 0 -8269869.587 8170913.241 22709638.644 10 0 60339 74700.00000 0 -10840741.776 7181783.322 21950254.543 10 0 60339 75600.00000 0 -13362732.174 6418699.757 20764835.188 10 0 60339 76500.00000 0 -15767927.091 5882323.433 19176397.918 10 0 60339 77400.00000 0 -17990891.034 5561117.648 17215773.323 10 0 60339 78300.00000 0 -19971214.153 5432016.782 14921009.384 10 0 60339 79200.00000 0 -21655864.195 5461590.996 12336636.172 10 0 60339 80100.00000 0 -23001245.535 5607657.352 9512804.913 10 0 60339 81000.00000 0 -23974879.830 5821269.074 6504317.649 10 0 60339 81900.00000 0 -24556638.466 6048998.678 3369565.934 10 0 60339 82800.00000 0 -24739475.482 6235418.245 169399.010 10 0 60339 83700.00000 0 -24529630.494 6325671.705 -3034056.655 10 0 60339 84600.00000 0 -23946293.294 6268029.943 -6178603.437 10 0 60339 85500.00000 0 -23020744.314 6016320.202 -9203180.604 99